Showing default

STELLA, 22824

Orbit data source: Space-Track

STELLA, 22824 is a payload satellite owned by CNES (FR) in SSO that was launched on Sun, 26 Sep 1993 UTC via an ARIANE 40 launch vehicle from the French Guiana (FRGUI). Payload-class satellites include a variety of spacecraft equipped with specific instruments for various scientific and technological missions. These include communications satellites like Starlink; space stations such as the ISS; scientific satellites like the Hubble; Earth observation satellites from companies like Planet Labs, Umbra, and HawkEye 360; GPS; miniature CubeSats for education and research; and military/defense satellites.

Loading next visibility...
Identifier
22824, 1993-061B
Orbit
SSO
Last TLE update
4 hours ago
Origin
Manufacturer
CNES
Mission
Operational Civil Geodetic
Bus & Motor
STARLETTE, Unknown motor
Mass
48 kg wet, 48 kg dry
Launch date (UTC)
1993-09-26 (32 years ago)
Launch vehicle
ARIANE 40
Launch site
French Guiana (FRGUI)
Object type
Payload
Rocket body
Debris
Shape & HBR
Sphere, 0.24 m
Radar Cross Section
0.045 m², Medium (>0.1 m² and < 1m²)

Expand to show TLE details & history

TLE from 4 hours ago
0 STELLA
1 22824U 93061B   25181.90300221 -.00000035  00000-0  40898-5 0  9994
2 22824  98.8236 238.9094 0006508 169.2477   5.3517 14.27456766654819
Epoch: 2025-06-30T21:40Z
TLE epoch observation values (Epoch: 2025-06-30T21:40:19.39Z)
Latitude
5.24557°
Longitude
175.43471°
Altitude
797.985 km
Speed
7.457 km/s
True Right ascension
03h 58m 53s
True Declination
5° 12' 52"
Sunlit
Object was in daylight at epoch
Visualization orbit readout
Latitude
32.93216°
Longitude
-10.93301°
Altitude
807.83 km
Speed
7.451 km/s
Apparent Right ascension
19h 07m 00s
Apparent Declination
-3° 39' 05"
Sunlit
Object is in daylight
Visualization observer readout
Local Sidereal Time
13:40:36
Azimuth
98.207° ESE
Elevation
4.068°
Doppler factor
1
Orbital elements
Apogee altitude
802.068 km
Perigee altitude
792.729 km
Semi-major axis
7,175.536 km
Eccentricity
0.00065
Inclination
98.8236°
RAAN
238.9094°
Arg. of periapsis
169.2477°
True anomaly
Unknown
Mean anomaly
5.3517°
Eccentric anomaly
Unknown
Mean motion
3.57077 °/min
Orbital period
100.82 mins
BSTAR
0.0000040898
Loading maneuver chart data...
Loading SW <> Apogee altitude chart data...
Loading historical data...
Loading historical data...
Loading historical data...
Loading historical data...
Loading historical data...
Loading historical data...
Loading historical data...

STELLA Visibility forecast

Observer location: undefined°, undefined°

Span
Click to sort rows by Start time (UTC) header in descending order
Start Az.
Max El. time (UTC)
Max El. Az.
Max El.
End time (UTC)
End Az.
9 mins2025-07-01 03:42:31.909Z162.23° S2025-07-01 03:46:31.909Z71.892° E44.889°2025-07-01 03:51:31.909Z347.642° N
7 mins2025-07-01 15:58:31.909Z48.971° ENE2025-07-01 16:01:31.909Z102.967° ESE27.741°2025-07-01 16:05:31.909Z157.608° S
7 mins2025-07-01 17:37:31.909Z344.448° N2025-07-01 17:40:31.909Z299.489° NW26.696°2025-07-01 17:44:31.909Z238.22° WSW
|